Regional Weather Roundup
Issued by NWS Northern Indiana

Home | Current Version | Previous Version | Graphics & Text | Print | Product List | Glossary On
Versions: 1 2 3 4 5 6 7 8 9 10 11 12 13 14 15 16 17 18 19 20 21 22 23 24 25 26 27 28 29 30 31 32 33 34 35 36 37 38 39 40 41 42 43 44 45 46 47 48 49 50
000
ASUS43 KIWX 221000
RWRIWX

KIWX WEATHER ROUNDUP
NATIONAL WEATHER SERVICE NORTHERN INDIANA
600 AM EDT WED OCT 22 2014

NOTE: "FAIR" INDICATES FEW OR NO CLOUDS BELOW 12,000 FEET WITH NO
SIGNIFICANT WEATHER AND/OR OBSTRUCTIONS TO VISIBILITY.

* THESE STATIONS ARE NOT UNDER NWS QUALITY CONTROL. THEY ALSO MAY NOT
  REPORT WEATHER SUCH AS PRECIPITATION OR FOG.

INZ001>027-221100-
NORTHERN INDIANA

CITY           SKY/WX    TMP DP  RH WIND       PRES   REMARKS
GARY*          PTCLDY    36  34  93 CALM      30.31R
SOUTH BEND     CLEAR     33  30  88 NE3       30.31R
GOSHEN         CLEAR     35  33  92 N3        30.30R
ANGOLA*        MOCLDY    36  16  44 N3        30.28R
FORT WAYNE     PTCLDY    38  35  89 N7        30.29R
PERU/GRISSOM   CLEAR     38  38 100 N5        30.29R

$$
INZ028>050-221100-
CENTRAL INDIANA

CITY           SKY/WX    TMP DP  RH WIND       PRES   REMARKS
LAFAYETTE      CLEAR     34  32  92 N3        30.29R
KOKOMO*        CLEAR     37  34  87 N5        30.29R
MUNCIE*        CLOUDY    42  37  82 N6        30.26R
INDIANAPOLIS   CLEAR     40  35  83 N8        30.26R

$$
MIZ043>046-050>051-056>058-064>065-071>073-077>080-221100-
SOUTHWEST LOWER MICHIGAN

CITY           SKY/WX    TMP DP  RH WIND       PRES   REMARKS
BATTLE CREEK   PTCLDY    34  31  88 N3        30.30R
BENTON HARBOR  CLEAR     30  30 100 CALM      30.31R
COLDWATER*     CLOUDY    38  36  93 CALM      30.29R
HILLSDALE*     CLOUDY    41  38  90 N5        30.27R
HOLLAND        CLEAR     34  30  85 CALM      30.33R
GRAND RAPIDS   CLEAR     33  30  88 CALM      30.32R
KALAMAZOO      CLEAR     31  28  89 NW3       30.31R
STURGIS*       CLEAR     34  34 100 N5        30.29R WCI  30
THREE RIVERS*  FAIR      35  34  94 CALM      30.31R

$$
OHZ001>008-015>018-024>025-221100-
NORTHWEST OHIO

CITY           SKY/WX    TMP DP  RH WIND       PRES   REMARKS
DEFIANCE       CLOUDY    44  37  76 NW6       30.27R
FINDLAY        CLOUDY    45  38  76 N9        30.23R
TOLEDO EXPRESS CLOUDY    44  37  76 N12       30.25R
TOLEDO METCALF CLOUDY    46  38  73 N12       30.25R
LIMA           CLOUDY    44  39  82 N7        30.24R

$$
AND FOR LAKE MICHIGAN COASTAL AND OPEN LAKE BUOY OBSERVATIONS

STATION/POSITION TEMP    WIND        PRES    VSBY  WAVE
                 AIR SEA DIR/SP/G                  HT/PER
                 (F)     (DEG/KT/KT) (MB)    (MI)  (FT/S)
CALUMET HARBOR    43     250/  2/  4 1024.5R
MICHIGAN CITY     40     100/  8/ 11   N/A
SAINT JOSEPH      37                 1026.8R
SOUTH LAKE BUOY   47 54  110/ 12/ 14 1026.4R         3/ 5

$$
&&



USA.gov is the U.S. government's official web portal to all federal, state and local government web resources and services.